TimeEST,TemperatureF,Dew PointF,Humidity,Sea Level PressureIn,VisibilityMPH,Wind Direction,Wind SpeedMPH,Gust SpeedMPH,PrecipitationIn,Events,Conditions,WindDirDegrees,DateUTC
12:54 AM,39.0,33.1,79,29.96,8.0,SSE,4.6,-,N/A,,Clear,150,2013-12-04 05:54:00
1:54 AM,39.9,33.1,77,29.96,7.0,Calm,Calm,-,N/A,,Clear,0,2013-12-04 06:54:00
2:54 AM,37.0,33.1,86,29.98,6.0,SSW,4.6,-,N/A,,Partly Cloudy,200,2013-12-04 07:54:00
3:54 AM,37.9,33.1,83,29.97,7.0,SSW,5.8,-,N/A,,Clear,210,2013-12-04 08:54:00
4:54 AM,37.0,33.1,86,29.96,7.0,South,5.8,-,N/A,,Clear,190,2013-12-04 09:54:00
5:54 AM,39.0,33.1,79,29.96,8.0,South,3.5,-,N/A,,Clear,190,2013-12-04 10:54:00
6:54 AM,35.1,33.1,92,29.99,5.0,South,4.6,-,N/A,,Clear,170,2013-12-04 11:54:00
7:54 AM,37.0,33.1,86,30.03,5.0,SSW,5.8,-,N/A,,Clear,200,2013-12-04 12:54:00
8:54 AM,41.0,35.1,79,30.04,6.0,SSW,4.6,-,N/A,,Haze,200,2013-12-04 13:54:00
9:10 AM,41.0,36.0,82,30.00,6.0,SSW,4.6,-,N/A,,Haze,200,2013-12-04 14:10:00
9:42 AM,43.0,37.0,80,30.00,6.0,South,4.6,-,N/A,,Haze,190,2013-12-04 14:42:00
9:54 AM,43.0,37.0,80,30.05,7.0,South,4.6,-,N/A,,Overcast,180,2013-12-04 14:54:00
10:54 AM,46.9,39.0,74,30.04,10.0,South,4.6,-,N/A,,Overcast,190,2013-12-04 15:54:00
11:54 AM,50.0,41.0,71,30.01,10.0,South,4.6,-,N/A,,Scattered Clouds,180,2013-12-04 16:54:00
12:54 PM,51.1,41.0,68,29.99,10.0,WSW,4.6,-,N/A,,Clear,240,2013-12-04 17:54:00
1:54 PM,55.0,42.1,62,29.96,10.0,SSW,6.9,-,N/A,,Clear,210,2013-12-04 18:54:00
2:54 PM,53.1,41.0,64,29.95,10.0,SE,8.1,-,N/A,,Clear,140,2013-12-04 19:54:00
3:54 PM,50.0,41.0,71,29.97,10.0,SSE,10.4,-,N/A,,Clear,150,2013-12-04 20:54:00
4:54 PM,46.0,37.9,73,29.99,8.0,SE,9.2,-,N/A,,Clear,130,2013-12-04 21:54:00
5:54 PM,46.9,39.0,74,29.99,9.0,SE,12.7,-,N/A,,Clear,140,2013-12-04 22:54:00
6:54 PM,46.0,39.0,76,30.01,8.0,SE,9.2,-,N/A,,Clear,140,2013-12-04 23:54:00
7:54 PM,44.1,37.9,79,30.01,6.0,SSE,5.8,-,N/A,,Haze,150,2013-12-05 00:54:00
8:54 PM,44.1,39.0,82,30.00,6.0,South,9.2,-,N/A,,Haze,170,2013-12-05 01:54:00
9:54 PM,44.1,39.9,85,30.01,5.0,South,8.1,-,N/A,,Mostly Cloudy,170,2013-12-05 02:54:00
10:54 PM,44.1,41.0,89,29.99,5.0,South,6.9,-,N/A,,Mostly Cloudy,180,2013-12-05 03:54:00
11:54 PM,44.1,42.1,93,30.00,5.0,South,3.5,-,N/A,,Overcast,190,2013-12-05 04:54:00